• In Hungary
  • List of Countries
  • For 7 days
  • Water Temperature
  • Satellite Maps
  • Weather Map
  • News
  • Weather Widgets
  • user-avatar
    Login

    Hourly Weather Laziska

    Today, 23 October, Monday

    Time Temperature Precipitation Wind Pressure Humidity
    00:00 +10°C° 0.1 mm 1 mps 741 mmHg 91%
    01:00 +9°C° 0 mm 2 mps 741 mmHg 93%
    02:00 +9°C° 0.2 mm 2 mps 740 mmHg 92%
    03:00 +9°C° 0.2 mm 2 mps 740 mmHg 92%
    04:00 +8°C° 0.2 mm 3 mps 740 mmHg 92%
    05:00 +8°C° 0.4 mm 3 mps 740 mmHg 91%
    06:00 +8°C° 0.4 mm 3 mps 740 mmHg 91%
    07:00 +8°C° 0.4 mm 3 mps 740 mmHg 91%
    08:00 +7°C° 0.3 mm 4 mps 740 mmHg 90%
    09:00 +8°C° 0.3 mm 4 mps 740 mmHg 88%
    10:00 +8°C° 0.3 mm 5 mps 740 mmHg 87%
    11:00 +8°C° 0.4 mm 5 mps 740 mmHg 86%
    12:00 +9°C° 0.4 mm 5 mps 740 mmHg 85%
    13:00 +9°C° 0.4 mm 5 mps 741 mmHg 85%
    14:00 +9°C° 0.6 mm 5 mps 741 mmHg 86%
    15:00 +9°C° 0.6 mm 5 mps 741 mmHg 86%
    16:00 +8°C° 0.6 mm 5 mps 741 mmHg 87%
    17:00 +8°C° 0.5 mm 5 mps 742 mmHg 88%
    18:00 +8°C° 0.5 mm 5 mps 742 mmHg 89%
    19:00 +8°C° 0.5 mm 5 mps 743 mmHg 90%
    20:00 +8°C° 0.3 mm 5 mps 743 mmHg 91%
    21:00 +8°C° 0.3 mm 5 mps 744 mmHg 91%
    22:00 +8°C° 0.3 mm 5 mps 744 mmHg 91%
    23:00 +8°C° 0.2 mm 4 mps 744 mmHg 91%

    Tomorrow, 24 October, Tuesday

    Time Temperature Precipitation Wind Pressure Humidity
    00:00 +8°C° 0.2 mm 4 mps 745 mmHg 91%
    01:00 +8°C° 0.2 mm 4 mps 745 mmHg 92%
    02:00 +8°C° 0.1 mm 4 mps 746 mmHg 91%
    03:00 +7°C° 0.1 mm 4 mps 746 mmHg 91%
    04:00 +7°C° 0.1 mm 4 mps 746 mmHg 91%
    05:00 +7°C° 0.1 mm 4 mps 747 mmHg 91%
    06:00 +8°C° 0.1 mm 3 mps 748 mmHg 91%
    07:00 +8°C° 0.1 mm 3 mps 748 mmHg 91%
    08:00 +8°C° 0 mm 3 mps 748 mmHg 89%
    09:00 +9°C° 0 mm 3 mps 749 mmHg 86%
    10:00 +9°C° 0 mm 3 mps 749 mmHg 84%
    11:00 +9°C° 0 mm 3 mps 749 mmHg 81%
    12:00 +10°C° 0 mm 2 mps 749 mmHg 79%
    13:00 +10°C° 0 mm 2 mps 749 mmHg 76%
    14:00 +10°C° 0 mm 2 mps 749 mmHg 77%
    15:00 +10°C° 0 mm 2 mps 749 mmHg 78%
    16:00 +9°C° 0 mm 2 mps 749 mmHg 79%
    17:00 +9°C° 0 mm 2 mps 750 mmHg 81%
    18:00 +8°C° 0 mm 2 mps 750 mmHg 82%
    19:00 +9°C° 0 mm 1 mps 751 mmHg 84%
    20:00 +8°C° 0 mm 1 mps 751 mmHg 85%
    21:00 +8°C° 0 mm 1 mps 751 mmHg 86%
    22:00 +7°C° 0 mm 1 mps 751 mmHg 87%
    23:00 +7°C° 0 mm 1 mps 751 mmHg 87%

    Day after tomorrow, 25 October, Wednesday

    Time Temperature Precipitation Wind Pressure Humidity
    00:00 +7°C° 0 mm 1 mps 751 mmHg 88%
    01:00 +7°C° 0 mm 1 mps 751 mmHg 88%
    02:00 +6°C° 0 mm 1 mps 751 mmHg 88%
    03:00 +6°C° 0 mm 1 mps 751 mmHg 88%
    04:00 +6°C° 0 mm 1 mps 751 mmHg 87%
    05:00 +6°C° 0 mm 1 mps 751 mmHg 87%
    06:00 +6°C° 0 mm 1 mps 750 mmHg 86%
    07:00 +5°C° 0 mm 2 mps 750 mmHg 85%
    08:00 +7°C° 0 mm 2 mps 750 mmHg 80%
    09:00 +9°C° 0 mm 2 mps 750 mmHg 74%
    10:00 +12°C° 0 mm 2 mps 750 mmHg 69%
    11:00 +13°C° 0 mm 2 mps 750 mmHg 70%
    12:00 +14°C° 0 mm 2 mps 750 mmHg 71%
    13:00 +13°C° 0 mm 3 mps 749 mmHg 72%
    14:00 +13°C° 0 mm 3 mps 749 mmHg 76%
    15:00 +13°C° 0 mm 3 mps 749 mmHg 80%
    16:00 +12°C° 0 mm 3 mps 749 mmHg 84%
    17:00 +12°C° 0 mm 3 mps 749 mmHg 86%
    18:00 +11°C° 0 mm 3 mps 750 mmHg 88%
    19:00 +11°C° 0 mm 3 mps 750 mmHg 90%
    20:00 +11°C° 0 mm 3 mps 750 mmHg 90%
    21:00 +11°C° 0 mm 3 mps 750 mmHg 89%
    22:00 +12°C° 0 mm 3 mps 750 mmHg 89%
    23:00 +11°C° 0 mm 3 mps 750 mmHg 90%

    26 October, Thursday

    Time Temperature Precipitation Wind Pressure Humidity
    00:00 +11°C° 0 mm 3 mps 750 mmHg 91%
    01:00 +12°C° 0 mm 2 mps 750 mmHg 93%
    02:00 +12°C° 0 mm 2 mps 750 mmHg 92%
    03:00 +12°C° 0 mm 2 mps 750 mmHg 92%
    04:00 +12°C° 0 mm 2 mps 750 mmHg 92%
    05:00 +12°C° 0 mm 2 mps 750 mmHg 92%
    06:00 +12°C° 0 mm 2 mps 750 mmHg 91%
    07:00 +11°C° 0 mm 3 mps 750 mmHg 91%
    08:00 +12°C° 0 mm 3 mps 750 mmHg 88%
    09:00 +13°C° 0 mm 3 mps 750 mmHg 85%
    10:00 +14°C° 0 mm 3 mps 750 mmHg 81%
    11:00 +16°C° 0 mm 3 mps 749 mmHg 78%
    12:00 +15°C° 0 mm 4 mps 749 mmHg 74%
    13:00 +17°C° 0 mm 4 mps 749 mmHg 71%
    14:00 +17°C° 0 mm 4 mps 748 mmHg 73%
    15:00 +15°C° 0 mm 4 mps 748 mmHg 75%
    16:00 +16°C° 0 mm 3 mps 747 mmHg 77%
    17:00 +14°C° 0 mm 3 mps 747 mmHg 79%
    18:00 +14°C° 0 mm 3 mps 747 mmHg 81%
    19:00 +13°C° 0 mm 3 mps 747 mmHg 83%
    20:00 +13°C° 0 mm 3 mps 747 mmHg 85%
    21:00 +12°C° 0 mm 3 mps 747 mmHg 86%
    22:00 +12°C° 0 mm 3 mps 746 mmHg 87%
    23:00 +12°C° 0 mm 3 mps 746 mmHg 87%

    27 October, Friday

    Time Temperature Precipitation Wind Pressure Humidity
    00:00 +12°C° 0 mm 3 mps 746 mmHg 88%
    01:00 +12°C° 0 mm 3 mps 745 mmHg 88%
    02:00 +12°C° 0 mm 3 mps 745 mmHg 88%
    03:00 +12°C° 0 mm 3 mps 744 mmHg 88%
    04:00 +12°C° 0 mm 3 mps 744 mmHg 88%
    05:00 +12°C° 0.1 mm 3 mps 743 mmHg 88%
    06:00 +12°C° 0.1 mm 4 mps 743 mmHg 88%
    07:00 +12°C° 0.1 mm 4 mps 743 mmHg 87%
    08:00 +12°C° 0.9 mm 4 mps 742 mmHg 87%
    09:00 +12°C° 0.9 mm 4 mps 742 mmHg 87%
    10:00 +12°C° 0.9 mm 5 mps 742 mmHg 87%
    11:00 +12°C° 1.9 mm 4 mps 741 mmHg 87%
    12:00 +12°C° 1.9 mm 4 mps 741 mmHg 88%
    13:00 +11°C° 1.9 mm 4 mps 741 mmHg 88%
    14:00 +11°C° 0.7 mm 4 mps 741 mmHg 86%
    15:00 +11°C° 0.7 mm 4 mps 741 mmHg 85%
    16:00 +10°C° 0.7 mm 3 mps 741 mmHg 83%
    17:00 +10°C° 0.3 mm 3 mps 741 mmHg 84%
    18:00 +8°C° 0.3 mm 4 mps 741 mmHg 85%
    19:00 +8°C° 0.3 mm 4 mps 742 mmHg 86%
    20:00 +8°C° 0.2 mm 4 mps 742 mmHg 86%
    21:00 +8°C° 0.2 mm 4 mps 742 mmHg 87%
    22:00 +9°C° 0.2 mm 3 mps 742 mmHg 87%
    23:00 +8°C° 0.7 mm 4 mps 741 mmHg 87%

    28 October, Saturday

    Time Temperature Precipitation Wind Pressure Humidity
    00:00 +8°C° 0.7 mm 4 mps 741 mmHg 88%
    01:00 +8°C° 0.7 mm 5 mps 741 mmHg 88%
    02:00 +8°C° 0.4 mm 5 mps 741 mmHg 87%
    03:00 +8°C° 0.4 mm 5 mps 741 mmHg 87%
    04:00 +8°C° 0.4 mm 6 mps 741 mmHg 86%
    05:00 +7°C° 0.2 mm 5 mps 741 mmHg 85%
    06:00 +7°C° 0.2 mm 5 mps 741 mmHg 85%
    07:00 +6°C° 0.2 mm 4 mps 741 mmHg 84%
    08:00 +7°C° 0.2 mm 4 mps 741 mmHg 82%
    09:00 +7°C° 0.2 mm 5 mps 741 mmHg 79%
    10:00 +8°C° 0.2 mm 5 mps 740 mmHg 77%
    11:00 +8°C° 0.7 mm 5 mps 739 mmHg 78%
    12:00 +8°C° 0.7 mm 6 mps 738 mmHg 79%
    13:00 +8°C° 0.7 mm 7 mps 737 mmHg 80%
    14:00 +6°C° 1 mm 7 mps 736 mmHg 80%
    15:00 +6°C° 1 mm 7 mps 735 mmHg 80%
    16:00 +6°C° 1 mm 8 mps 734 mmHg 80%
    17:00 +6°C° 1.6 mm 8 mps 734 mmHg 81%
    18:00 +7°C° 1.6 mm 8 mps 733 mmHg 82%
    19:00 +7°C° 1.6 mm 8 mps 733 mmHg 84%
    20:00 +7°C° 1.2 mm 8 mps 733 mmHg 83%
    21:00 +7°C° 1.2 mm 8 mps 733 mmHg 83%
    22:00 +7°C° 1.2 mm 8 mps 733 mmHg 82%
    23:00 +6°C° 0.9 mm 8 mps 733 mmHg 82%

    29 October, Sunday

    Time Temperature Precipitation Wind Pressure Humidity
    00:00 +6°C° 0.9 mm 8 mps 734 mmHg 81%
    01:00 +6°C° 0.9 mm 9 mps 734 mmHg 80%
    02:00 +5°C° 0.3 mm 9 mps 735 mmHg 80%
    03:00 +5°C° 0.3 mm 9 mps 735 mmHg 80%
    04:00 +5°C° 0.3 mm 9 mps 736 mmHg 80%
    05:00 +4°C° 0.2 mm 8 mps 737 mmHg 79%
    06:00 +2°C° 0.2 mm 8 mps 737 mmHg 78%
    07:00 +2°C° 0.2 mm 8 mps 738 mmHg 77%
    08:00 +2°C° 0.2 mm 8 mps 739 mmHg 75%
    09:00 +2°C° 0.2 mm 8 mps 739 mmHg 73%
    10:00 +4°C° 0.2 mm 8 mps 740 mmHg 70%
    11:00 +4°C° 0.1 mm 8 mps 740 mmHg 69%
    12:00 +4°C° 0.1 mm 8 mps 741 mmHg 67%
    13:00 +4°C° 0.1 mm 8 mps 741 mmHg 65%
    14:00 +4°C° 0.1 mm 7 mps 741 mmHg 66%
    15:00 +4°C° 0.1 mm 6 mps 742 mmHg 66%
    16:00 +5°C° 0.1 mm 5 mps 742 mmHg 67%
    17:00 +3°C° 0 mm 5 mps 742 mmHg 69%
    18:00 +4°C° 0 mm 4 mps 743 mmHg 71%
    19:00 +4°C° 0 mm 4 mps 743 mmHg 73%
    20:00 +3°C° 0 mm 3 mps 743 mmHg 76%
    21:00 +3°C° 0 mm 3 mps 744 mmHg 78%
    22:00 +2°C° 0 mm 3 mps 744 mmHg 81%
    23:00 +2°C° 0 mm 3 mps 744 mmHg 82%
    Show more